Flag for U.S.A. Weather past 2 weeks in State College, Pennsylvania, U.S.A.

53 °F

Mostly cloudy.

Feels Like: 50 °F
Forecast: 41 / 59 °F
Wind: 10 mph from North

Location: University Park Airport

Current Time: Oct 10, 2015 at 1:37:39 AM

Latest Report: Oct 10, 2015 at 1:15 AM

Visibility: 10 mi

Pressure: 30.07 "Hg

Humidity: 72%

Dew point: 44 °F

Location of State CollegeLocation

Historic Weather in State College — Graph


State College temperature yesterday

Maximum temperature yesterday: 72 °F (at 11:53 AM)
Minimum temperature yesterday: 55 °F (at 11:35 PM)
Average temperature yesterday: 60 °F

Past Weeks' High & Low Weather Summary

High72 °F (Oct 6, 2:53 PM)100% (Sep 25, 5:53 AM)30.44 "Hg (Sep 25, 5:53 AM)
Low41 °F (Oct 3, 5:53 AM)42% (Oct 5, 5:53 PM)29.74 "Hg (Sep 30, 3:55 AM)
Average57 °F84%30.16 "Hg
* Reported Sep 25 12:55 AM — Oct 10 12:35 AM, State College, Weather by CustomWeather, © 2015

Note: Actual official high and low records may vary slightly from our data, if they occured in-between our weather recording intervals... More about our weather records


State College weather history for previous 24 hours

Time TempWeatherWind HumidityBarometerVisibility
12:35 AM
Sat, Oct 10
54 °FOvercast.9 mph68%30.06 "Hg10 mi
11:55 PM
Fri, Oct 9
55 °FMostly cloudy.13 mph70%30.05 "Hg10 mi
11:35 PM55 °FPartly cloudy.9 mph75%30.04 "Hg10 mi
11:15 PM56 °FOvercast.13 mph72%30.03 "Hg10 mi
10:55 PM57 °FMostly cloudy.12 mph71%30.03 "Hg10 mi
10:35 PM58 °FOvercast.14 mph68%30.03 "Hg10 mi
10:15 PM59 °FMostly cloudy.9 mph69%30.02 "Hg10 mi
8:53 PM61 °FOvercast.8 mph68%29.98 "Hg10 mi
7:53 PM61 °FPassing clouds.7 mph72%29.96 "Hg10 mi
6:53 PM63 °FPartly sunny.13 mph68%29.92 "Hg10 mi
5:53 PM64 °FBroken clouds.12 mph73%29.88 "Hg10 mi
4:53 PM66 °FBroken clouds.12 mph78%29.86 "Hg10 mi
3:53 PM66 °FPartly sunny.10 mph83%29.87 "Hg7 mi
2:53 PM64 °FMostly cloudy.8 mph94%29.87 "Hg7 mi
1:53 PM64 °FCloudy.7 mph94%29.88 "Hg5 mi
12:53 PM72 °FLight rain. Cloudy.14 mph65%29.87 "Hg10 mi
11:53 AM72 °FScattered clouds.9 mph65%29.88 "Hg10 mi
10:53 AM68 °FScattered clouds.12 mph73%29.90 "Hg10 mi
9:53 AM64 °FPartly sunny.8 mph78%29.92 "Hg10 mi
8:53 AM61 °FBroken clouds.7 mph88%29.92 "Hg10 mi
7:53 AM57 °FPartly cloudy.8 mph94%29.91 "Hg10 mi
6:53 AM57 °FPassing clouds.7 mph94%29.92 "Hg10 mi
5:53 AM57 °FPassing clouds.7 mph94%29.94 "Hg10 mi
5:35 AM57 °FPassing clouds.6 mph91%29.94 "Hg10 mi
5:15 AM58 °FMostly cloudy.6 mph91%29.94 "Hg10 mi
4:55 AM58 °FMostly cloudy.5 mph89%29.95 "Hg10 mi
4:35 AM57 °FPassing clouds.6 mph91%29.95 "Hg10 mi
4:15 AM57 °FPassing clouds.5 mph88%29.96 "Hg10 mi
3:55 AM58 °FPassing clouds.3 mph87%29.97 "Hg10 mi
3:35 AM57 °FPassing clouds.3 mph89%29.98 "Hg10 mi
3:15 AM58 °FMostly cloudy.6 mph87%29.98 "Hg10 mi
2:55 AM58 °FOvercast.6 mph88%29.99 "Hg10 mi
2:35 AM58 °FPassing clouds.6 mph87%29.99 "Hg10 mi
2:15 AM58 °FPassing clouds.6 mph85%30.00 "Hg10 mi
1:55 AM58 °FClear.6 mph82%30.00 "Hg10 mi
1:35 AM58 °FPassing clouds.6 mph84%30.00 "Hg10 mi
1:15 AM56 °FPassing clouds.6 mph85%30.01 "Hg10 mi
Weather by CustomWeather, © 2015

See weather overviewHow to use our weather pages